Morris, IL

5:04 PM CDT on July 25, 2017 (GMT -0500)
Morris

Weather History for KC09 - January, 2014

Change the Weather History Date:

Monday, January 27, 2014

  Actual Average (KARR) Record (KARR)
Temperature  
Mean Temperature -2 °F -  
Max Temperature 4 °F 28 °F 58 °F (2002)
Min Temperature -9 °F 14 °F -12 °F (2003)
Degree Days  
Heating Degree Days 68    
Moisture  
Dew Point -13 °F    
Average Humidity 62    
Maximum Humidity 70    
Minimum Humidity 54    
Precipitation  
Precipitation 0.00 in - - ()
Sea Level Pressure  
Sea Level Pressure 30.26 in    
Wind  
Wind Speed 22 mph (WNW)    
Max Wind Speed 36 mph    
Max Gust Speed 40 mph    
Visibility 6 miles    
Events Snow    
Averages and records for this station are not official NWS values.
T = Trace of Precipitation, MM = Missing Value Source: NWS Daily Summary

Daily Weather History Graph

Daily Weather History Graph

Search for Another Location

Airport or City:

Trip Planner

Search our weather history database for the weather conditions in past years. The results will help you decide how hot, cold, wet, or windy it might be!

Date:

Astronomy

Jan. 27, 2014 Rise Set
Actual Time 7:09 AM CST 5:03 PM CST
Civil Twilight 6:40 AM CST 5:33 PM CST
Nautical Twilight 6:06 AM CST 6:06 PM CST
Astronomical Twilight 5:34 AM CST 6:39 PM CST
Moon 3:51 AM CST (1/27) 1:48 PM CST (1/27)
Length of Visible Light 10h 53m
Length of Day
9h 53m
Waning Crescent, 14% of the Moon is Illuminated
Jan 27
Waning Crescent
Jan 30
New
Feb 6
First Quarter
Feb 14
Full
Feb 22
Last Quarter

Hourly Weather History & Observations

Time (CST) Temp. Windchill Dew Point Humidity Pressure Visibility Wind Dir Wind Speed Gust Speed Precip Events Conditions
12:15 AM 4.1 °F -21.3 °F -3.8 °F 70% 29.90 in 1.0 mi WNW 33.4 mph 40.3 mph N/A Snow Light Snow
12:35 AM 3.7 °F -22.4 °F -4.0 °F 70% 29.91 in 1.0 mi WNW 35.7 mph 40.3 mph N/A Snow Light Snow
12:55 AM 3.4 °F -20.1 °F -4.9 °F 68% 29.94 in 1.2 mi WNW 26.5 mph 38.0 mph N/A Snow Light Snow
1:15 AM 3.2 °F -19.9 °F -5.4 °F 67% 29.95 in 2.5 mi WNW 25.3 mph - N/A   Haze
1:35 AM 2.7 °F -20.6 °F -6.2 °F 67% 29.97 in 5.0 mi WNW 25.3 mph 28.8 mph N/A   Haze
1:55 AM 2.1 °F -20.5 °F -6.0 °F 69% 29.98 in 4.0 mi West 23.0 mph 27.6 mph N/A   Haze
2:15 AM 1.4 °F -22.3 °F -6.3 °F 70% 30.00 in 2.5 mi WNW 25.3 mph 33.4 mph N/A   Haze
2:35 AM 1.4 °F -22.7 °F -6.7 °F 69% 30.01 in 1.8 mi WNW 26.5 mph 34.5 mph N/A   Haze
2:55 AM 0.7 °F -22.4 °F -7.4 °F 69% 30.04 in 3.0 mi WNW 23.0 mph - N/A   Haze
3:15 AM 0.5 °F -22.2 °F -7.8 °F 68% 30.05 in 5.0 mi WNW 21.9 mph - N/A   Haze
3:35 AM 0.3 °F -22.9 °F -7.8 °F 69% 30.06 in 4.0 mi WNW 23.0 mph - N/A   Haze
3:55 AM -0.0 °F -23.3 °F -8.5 °F 68% 30.08 in 4.0 mi West 23.0 mph - N/A   Haze
4:15 AM -0.2 °F -24.5 °F -8.7 °F 67% 30.09 in 3.0 mi WNW 25.3 mph 28.8 mph N/A   Haze
4:35 AM -0.6 °F -23.1 °F -9.4 °F 66% 30.11 in 4.0 mi West 20.7 mph - N/A   Haze
4:55 AM -0.9 °F -24.1 °F -8.9 °F 69% 30.12 in 5.0 mi West 21.9 mph - N/A   Haze
5:15 AM -1.1 °F -23.2 °F -9.4 °F 68% 30.13 in 7.0 mi West 19.6 mph - N/A   Clear
5:35 AM -1.5 °F -22.6 °F -10.3 °F 66% 30.14 in 10.0 mi West 17.3 mph - N/A   Clear
5:55 AM -1.8 °F -23.6 °F -10.8 °F 66% 30.15 in 10.0 mi West 18.4 mph 23.0 mph N/A   Clear
6:15 AM -2.2 °F -24.1 °F -11.4 °F 65% 30.16 in 10.0 mi West 18.4 mph - N/A   Clear
6:35 AM -2.6 °F -25.7 °F -11.7 °F 65% 30.18 in 10.0 mi West 20.7 mph - N/A   Scattered Clouds
6:55 AM -2.9 °F -26.7 °F -12.1 °F 65% 30.18 in 5.0 mi West 21.9 mph 27.6 mph N/A   Haze
7:15 AM -3.3 °F -26.6 °F -12.5 °F 65% 30.19 in 7.0 mi WNW 20.7 mph - N/A   Scattered Clouds
7:35 AM -3.3 °F -25.5 °F -12.6 °F 64% 30.21 in 5.0 mi WNW 18.4 mph 26.5 mph N/A   Haze
7:55 AM -3.3 °F -26.6 °F -12.6 °F 64% 30.22 in 5.0 mi WNW 20.7 mph 26.5 mph N/A   Haze
8:15 AM -3.1 °F -24.7 °F -12.5 °F 64% 30.23 in 7.0 mi West 17.3 mph 24.2 mph N/A   Clear
8:35 AM -2.7 °F -26.9 °F -12.5 °F 63% 30.24 in 2.5 mi WNW 23.0 mph 29.9 mph N/A   Haze
8:55 AM -2.4 °F -24.9 °F -12.1 °F 63% 30.25 in 3.0 mi WNW 19.6 mph - N/A   Haze
9:15 AM -2.2 °F -26.2 °F -12.5 °F 62% 30.26 in 3.0 mi WNW 23.0 mph - N/A   Haze
9:35 AM -2.2 °F -25.7 °F -12.5 °F 62% 30.26 in 4.0 mi WNW 21.9 mph 27.6 mph N/A   Haze
9:55 AM -2.2 °F -27.1 °F -13.4 °F 59% 30.27 in 2.5 mi WNW 25.3 mph 31.1 mph N/A   Haze
10:15 AM -1.8 °F -25.2 °F -13.4 °F 58% 30.28 in 5.0 mi West 21.9 mph - N/A   Haze
10:35 AM -1.7 °F -24.5 °F -12.8 °F 59% 30.29 in 4.0 mi WNW 20.7 mph - N/A   Haze
10:55 AM -1.3 °F -24.0 °F -12.6 °F 59% 30.29 in 5.0 mi WNW 20.7 mph 26.5 mph N/A   Haze
11:15 AM -1.1 °F -23.8 °F -12.3 °F 59% 30.30 in 5.0 mi WNW 20.7 mph 26.5 mph N/A   Haze
11:35 AM -1.3 °F -24.0 °F -11.7 °F 61% 30.30 in 4.0 mi WNW 20.7 mph - N/A   Haze
11:55 AM -1.3 °F -25.9 °F -12.1 °F 60% 30.30 in 3.0 mi WNW 25.3 mph - N/A   Haze
12:15 PM -1.1 °F -25.2 °F -12.1 °F 60% 30.30 in 2.5 mi WNW 24.2 mph 28.8 mph N/A   Haze
12:35 PM -1.3 °F -23.5 °F -11.7 °F 61% 30.30 in 3.0 mi WNW 19.6 mph 27.6 mph N/A   Haze
12:55 PM -1.1 °F -23.2 °F -11.6 °F 61% 30.31 in 5.0 mi West 19.6 mph 24.2 mph N/A   Haze
1:15 PM -1.3 °F -24.5 °F -11.2 °F 63% 30.30 in 4.0 mi West 21.9 mph 25.3 mph N/A   Haze
1:35 PM -1.3 °F -24.5 °F -11.4 °F 62% 30.29 in 4.0 mi WNW 21.9 mph 26.5 mph N/A   Haze
1:55 PM -1.1 °F -23.8 °F -11.7 °F 61% 30.31 in 7.0 mi WNW 20.7 mph 25.3 mph N/A   Mostly Cloudy
2:15 PM -1.3 °F -24.0 °F -11.6 °F 62% 30.31 in 5.0 mi WNW 20.7 mph - N/A   Haze
2:35 PM -1.3 °F -23.5 °F -12.6 °F 59% 30.32 in 5.0 mi WNW 19.6 mph 26.5 mph N/A   Haze
2:55 PM -1.3 °F -24.5 °F -13.5 °F 56% 30.34 in 7.0 mi WNW 21.9 mph - N/A   Scattered Clouds
3:15 PM -1.8 °F -25.2 °F -13.7 °F 57% 30.34 in 4.0 mi WNW 21.9 mph - N/A   Haze
3:35 PM -2.2 °F -24.7 °F -14.3 °F 57% 30.36 in 7.0 mi WNW 19.6 mph - N/A   Mostly Cloudy
3:55 PM -2.2 °F -25.2 °F -14.6 °F 56% 30.36 in 10.0 mi WNW 20.7 mph 24.2 mph N/A   Scattered Clouds
4:15 PM -2.4 °F -24.3 °F -14.6 °F 56% 30.36 in 10.0 mi WNW 18.4 mph - N/A   Clear
4:35 PM -3.1 °F -24.0 °F -15.9 °F 54% 30.37 in 10.0 mi WNW 16.1 mph - N/A   Clear
4:55 PM -3.8 °F -24.9 °F -16.4 °F 55% 30.38 in 10.0 mi WNW 16.1 mph - N/A   Clear
5:15 PM -4.5 °F -23.6 °F -16.8 °F 56% 30.38 in 10.0 mi WNW 12.7 mph - N/A   Clear
5:35 PM -4.9 °F -24.1 °F -17.5 °F 55% 30.39 in 10.0 mi WNW 12.7 mph - N/A   Clear
5:55 PM -5.8 °F -22.4 °F -17.0 °F 59% 30.40 in 10.0 mi West 9.2 mph - N/A   Clear
6:15 PM -5.6 °F -23.2 °F -17.7 °F 56% 30.41 in 10.0 mi West 10.4 mph - N/A   Clear
6:35 PM -5.8 °F -24.4 °F -18.0 °F 56% 30.41 in 10.0 mi West 11.5 mph - N/A   Clear
6:55 PM -6.2 °F -24.8 °F -17.9 °F 57% 30.41 in 10.0 mi WNW 11.5 mph - N/A   Clear
7:15 PM -6.9 °F -26.6 °F -18.4 °F 57% 30.41 in 10.0 mi West 12.7 mph - N/A   Clear
7:35 PM -6.9 °F -26.6 °F -18.0 °F 58% 30.42 in 10.0 mi WNW 12.7 mph - N/A   Clear
7:55 PM -6.7 °F -25.5 °F -18.2 °F 57% 30.42 in 10.0 mi WNW 11.5 mph - N/A   Clear
8:15 PM -6.9 °F -26.6 °F -18.4 °F 57% 30.42 in 10.0 mi WNW 12.7 mph - N/A   Clear
8:35 PM -6.7 °F -27.9 °F -18.2 °F 57% 30.41 in 10.0 mi WNW 15.0 mph - N/A   Clear
8:55 PM -7.1 °F -26.8 °F -18.4 °F 58% 30.42 in 10.0 mi West 12.7 mph - N/A   Clear
9:15 PM -7.6 °F -23.4 °F -18.8 °F 58% 30.43 in 10.0 mi West 8.1 mph - N/A   Clear
9:35 PM -8.0 °F -22.5 °F -18.8 °F 59% 30.43 in 10.0 mi WNW 6.9 mph - N/A   Clear
9:55 PM -8.5 °F -19.8 °F -18.9 °F 60% 30.43 in 10.0 mi West 4.6 mph - N/A   Clear
10:15 PM -8.7 °F -21.9 °F -19.3 °F 60% 30.43 in 10.0 mi West 5.8 mph - N/A   Clear
10:35 PM -9.9 °F -23.4 °F -19.5 °F 63% 30.44 in 10.0 mi SW 5.8 mph - N/A   Clear
10:55 PM -9.4 °F -22.7 °F -19.3 °F 62% 30.44 in 10.0 mi West 5.8 mph - N/A   Clear
11:15 PM -9.4 °F -24.3 °F -19.3 °F 62% 30.44 in 10.0 mi West 6.9 mph - N/A   Clear
11:35 PM -8.5 °F -23.2 °F -18.8 °F 61% 30.44 in 10.0 mi West 6.9 mph - N/A   Clear
11:55 PM -8.7 °F -21.9 °F -19.3 °F 60% 30.43 in 10.0 mi West 5.8 mph - N/A   Clear